Time,TemperatureF,DewpointF,PressureIn,WindDirection,WindDirectionDegrees,WindSpeedMPH,WindSpeedGustMPH,Humidity,HourlyPrecipIn,Conditions,Clouds,dailyrainin,SolarRadiationWatts/m^2,SoftwareType,DateUTC
2013-03-24 00:00:00,71.0,67.0,30.02,WNW,292,4.0,11.0,87,0.00,,,0.28,0,weatherlink.com 1.10,2013-03-24 10:00:00,
2013-03-24 00:15:00,71.1,67.0,30.02,NNW,341,4.0,11.0,87,0.00,,,0.00,0,weatherlink.com 1.10,2013-03-24 10:15:00,
2013-03-24 00:31:00,71.1,67.0,30.01,SE,140,4.0,9.0,87,0.00,,,0.00,0,weatherlink.com 1.10,2013-03-24 10:31:00,
2013-03-24 00:46:00,71.2,67.0,30.01,SE,145,1.0,8.0,87,0.00,,,0.00,0,weatherlink.com 1.10,2013-03-24 10:46:00,
2013-03-24 01:01:00,71.1,68.0,30.00,SE,131,3.0,9.0,89,0.00,,,0.00,0,weatherlink.com 1.10,2013-03-24 11:01:00,
2013-03-24 01:31:00,69.6,67.0,30.00,NNW,332,2.0,8.0,92,0.01,,,0.01,0,weatherlink.com 1.10,2013-03-24 11:31:00,
2013-03-24 01:46:00,69.2,67.0,30.00,WNW,301,5.0,6.0,93,0.01,,,0.01,0,weatherlink.com 1.10,2013-03-24 11:46:00,
2013-03-24 02:01:00,69.0,67.0,30.00,NW,308,4.0,10.0,94,0.01,,,0.01,0,weatherlink.com 1.10,2013-03-24 12:01:00,
2013-03-24 02:17:00,68.8,67.0,29.99,NW,307,2.0,10.0,94,0.00,,,0.01,0,weatherlink.com 1.10,2013-03-24 12:17:00,
2013-03-24 02:47:00,68.9,68.0,29.98,WNW,300,5.0,10.0,95,0.01,,,0.02,0,weatherlink.com 1.10,2013-03-24 12:47:00,
2013-03-24 03:02:00,68.9,68.0,29.98,NW,310,5.0,7.0,95,0.01,,,0.02,0,weatherlink.com 1.10,2013-03-24 13:02:00,
2013-03-24 03:17:00,69.0,67.0,29.98,WNW,292,2.0,9.0,93,0.01,,,0.02,0,weatherlink.com 1.10,2013-03-24 13:17:00,
2013-03-24 03:32:00,69.4,67.0,29.98,NNW,342,4.0,9.0,93,0.00,,,0.02,0,weatherlink.com 1.10,2013-03-24 13:32:00,
2013-03-24 03:46:00,69.7,68.0,29.98,NW,313,3.0,8.0,93,0.00,,,0.02,0,weatherlink.com 1.10,2013-03-24 13:46:00,
2013-03-24 04:18:00,69.4,67.0,29.97,NW,323,1.0,10.0,93,0.00,,,0.02,0,weatherlink.com 1.10,2013-03-24 14:18:00,
2013-03-24 04:32:00,69.4,67.0,29.97,NW,320,5.0,10.0,93,0.00,,,0.02,0,weatherlink.com 1.10,2013-03-24 14:32:00,
2013-03-24 04:47:00,69.5,67.0,29.97,NNW,335,6.0,8.0,92,0.00,,,0.02,0,weatherlink.com 1.10,2013-03-24 14:47:00,
2013-03-24 05:02:00,69.7,67.0,29.97,NNW,335,4.0,8.0,91,0.00,,,0.02,0,weatherlink.com 1.10,2013-03-24 15:02:00,
2013-03-24 05:17:00,70.1,67.0,29.98,NW,304,10.0,14.0,91,0.00,,,0.02,0,weatherlink.com 1.10,2013-03-24 15:17:00,
2013-03-24 05:33:00,70.3,67.0,29.98,NW,316,4.0,12.0,90,0.00,,,0.02,0,weatherlink.com 1.10,2013-03-24 15:33:00,
2013-03-24 05:47:00,70.5,68.0,29.98,WNW,296,7.0,12.0,91,0.00,,,0.02,0,weatherlink.com 1.10,2013-03-24 15:47:00,
2013-03-24 06:03:00,70.2,68.0,29.98,SSW,194,1.0,12.0,91,0.00,,,0.02,0,weatherlink.com 1.10,2013-03-24 16:03:00,
2013-03-24 06:18:00,70.1,67.0,29.99,NW,308,3.0,11.0,91,0.00,,,0.02,0,weatherlink.com 1.10,2013-03-24 16:18:00,
2013-03-24 06:33:00,70.4,67.0,29.99,NNW,329,10.0,13.0,90,0.00,,,0.02,0,weatherlink.com 1.10,2013-03-24 16:33:00,
2013-03-24 06:48:00,70.7,68.0,30.00,North,351,6.0,12.0,90,0.00,,,0.02,0,weatherlink.com 1.10,2013-03-24 16:48:00,
2013-03-24 07:03:00,70.9,68.0,30.01,NNW,342,5.0,9.0,90,0.00,,,0.02,0,weatherlink.com 1.10,2013-03-24 17:03:00,
2013-03-24 07:18:00,70.9,68.0,30.01,WNW,300,4.0,10.0,89,0.00,,,0.02,7,weatherlink.com 1.10,2013-03-24 17:18:00,
2013-03-24 07:35:00,70.9,68.0,30.02,NNW,333,5.0,7.0,89,0.00,,,0.02,11,weatherlink.com 1.10,2013-03-24 17:35:00,
2013-03-24 07:48:00,70.9,68.0,30.02,NW,322,5.0,8.0,89,0.00,,,0.02,21,weatherlink.com 1.10,2013-03-24 17:48:00,
2013-03-24 08:05:00,71.0,68.0,30.03,NW,306,4.0,8.0,89,0.00,,,0.02,14,weatherlink.com 1.10,2013-03-24 18:05:00,
2013-03-24 08:20:00,71.0,67.0,30.03,NE,37,3.0,9.0,88,0.00,,,0.02,49,weatherlink.com 1.10,2013-03-24 18:20:00,
2013-03-24 08:35:00,71.2,68.0,30.03,NW,306,8.0,9.0,89,0.00,,,0.02,70,weatherlink.com 1.10,2013-03-24 18:35:00,
2013-03-24 08:50:00,70.8,68.0,30.04,NW,325,8.0,10.0,90,0.00,,,0.02,40,weatherlink.com 1.10,2013-03-24 18:50:00,
2013-03-24 09:03:00,70.5,68.0,30.05,WNW,290,1.0,12.0,91,0.00,,,0.02,51,weatherlink.com 1.10,2013-03-24 19:03:00,
2013-03-24 09:20:00,70.2,68.0,30.05,North,349,1.0,11.0,92,0.00,,,0.02,40,weatherlink.com 1.10,2013-03-24 19:20:00,
2013-03-24 09:35:00,69.8,68.0,30.06,North,8,4.0,8.0,93,0.02,,,0.04,30,weatherlink.com 1.10,2013-03-24 19:35:00,
2013-03-24 09:50:00,69.5,68.0,30.06,NNW,329,4.0,8.0,94,0.03,,,0.05,37,weatherlink.com 1.10,2013-03-24 19:50:00,
2013-03-24 10:05:00,69.1,67.0,30.07,NNW,327,4.0,10.0,94,0.07,,,0.09,42,weatherlink.com 1.10,2013-03-24 20:05:00,
2013-03-24 10:20:00,69.2,68.0,30.07,NW,309,1.0,8.0,95,0.12,,,0.14,42,weatherlink.com 1.10,2013-03-24 20:20:00,
2013-03-24 10:35:00,69.0,68.0,30.07,NNW,329,3.0,8.0,95,0.22,,,0.26,54,weatherlink.com 1.10,2013-03-24 20:35:00,
2013-03-24 10:50:00,68.9,68.0,30.06,NW,304,5.0,9.0,96,0.32,,,0.37,65,weatherlink.com 1.10,2013-03-24 20:50:00,
2013-03-24 11:05:00,68.5,67.0,30.06,NW,311,4.0,8.0,96,0.34,,,0.43,53,weatherlink.com 1.10,2013-03-24 21:05:00,
2013-03-24 11:20:00,68.7,68.0,30.05,NW,304,2.0,9.0,96,0.32,,,0.46,44,weatherlink.com 1.10,2013-03-24 21:20:00,
2013-03-24 11:35:00,68.9,68.0,30.05,NNW,346,4.0,9.0,97,0.21,,,0.48,63,weatherlink.com 1.10,2013-03-24 21:35:00,
2013-03-24 11:50:00,69.2,68.0,30.05,NW,306,5.0,9.0,97,0.14,,,0.51,65,weatherlink.com 1.10,2013-03-24 21:50:00,
2013-03-24 12:05:00,69.3,69.0,30.05,East,98,2.0,10.0,97,0.11,,,0.54,51,weatherlink.com 1.10,2013-03-24 22:05:00,
2013-03-24 12:20:00,69.4,69.0,30.04,NW,306,3.0,7.0,97,0.10,,,0.56,54,weatherlink.com 1.10,2013-03-24 22:20:00,
2013-03-24 12:35:00,69.5,69.0,30.04,SE,131,7.0,10.0,97,0.09,,,0.57,69,weatherlink.com 1.10,2013-03-24 22:35:00,
2013-03-24 12:50:00,69.5,69.0,30.03,East,94,5.0,8.0,97,0.07,,,0.58,95,weatherlink.com 1.10,2013-03-24 22:50:00,
2013-03-24 13:05:00,69.5,69.0,30.03,ENE,62,4.0,9.0,97,0.05,,,0.60,88,weatherlink.com 1.10,2013-03-24 23:05:00,
2013-03-24 13:20:00,69.4,69.0,30.01,ESE,108,1.0,7.0,97,0.06,,,0.62,93,weatherlink.com 1.10,2013-03-24 23:20:00,
2013-03-24 13:36:00,69.4,69.0,29.99,NW,309,3.0,6.0,97,0.07,,,0.64,158,weatherlink.com 1.10,2013-03-24 23:36:00,
2013-03-24 13:51:00,69.8,69.0,29.98,NNW,331,1.0,9.0,97,0.06,,,0.64,223,weatherlink.com 1.10,2013-03-24 23:51:00,
2013-03-24 14:20:00,69.5,69.0,29.98,NW,312,6.0,8.0,97,0.02,,,0.65,47,weatherlink.com 1.10,2013-03-25 00:20:00,
2013-03-24 14:36:00,69.5,69.0,29.98,NW,314,3.0,9.0,97,0.02,,,0.66,100,weatherlink.com 1.10,2013-03-25 00:36:00,
2013-03-24 14:51:00,69.6,69.0,29.97,NW,314,6.0,9.0,97,0.02,,,0.66,102,weatherlink.com 1.10,2013-03-25 00:51:00,
2013-03-24 15:06:00,69.7,69.0,29.97,NNW,343,8.0,9.0,97,0.01,,,0.66,83,weatherlink.com 1.10,2013-03-25 01:06:00,
2013-03-24 15:21:00,69.8,69.0,29.97,WNW,300,6.0,9.0,97,0.00,,,0.66,63,weatherlink.com 1.10,2013-03-25 01:21:00,
2013-03-24 15:51:00,69.6,69.0,29.96,NW,323,6.0,11.0,96,0.02,,,0.68,67,weatherlink.com 1.10,2013-03-25 01:51:00,
2013-03-24 16:07:00,69.7,69.0,29.95,NW,321,2.0,13.0,97,0.02,,,0.68,58,weatherlink.com 1.10,2013-03-25 02:07:00,
2013-03-24 16:51:00,69.9,69.0,29.96,NNW,329,3.0,8.0,96,0.01,,,0.69,42,weatherlink.com 1.10,2013-03-25 02:51:00,
2013-03-24 17:07:00,69.9,69.0,29.95,NNW,331,3.0,6.0,96,0.01,,,0.69,33,weatherlink.com 1.10,2013-03-25 03:07:00,
2013-03-24 17:22:00,70.1,69.0,29.95,East,94,3.0,6.0,96,0.01,,,0.70,47,weatherlink.com 1.10,2013-03-25 03:22:00,
2013-03-24 17:37:00,69.7,68.0,29.95,NW,310,3.0,6.0,95,0.01,,,0.70,37,weatherlink.com 1.10,2013-03-25 03:37:00,
2013-03-24 17:52:00,69.8,68.0,29.95,ESE,113,0.0,6.0,95,0.01,,,0.70,21,weatherlink.com 1.10,2013-03-25 03:52:00,
2013-03-24 18:06:00,69.9,69.0,29.96,East,101,3.0,6.0,95,0.01,,,0.70,14,weatherlink.com 1.10,2013-03-25 04:06:00,
2013-03-24 18:21:00,69.6,68.0,29.96,SE,133,2.0,6.0,95,0.00,,,0.70,11,weatherlink.com 1.10,2013-03-25 04:21:00,
2013-03-24 18:36:00,69.7,68.0,29.97,ESE,119,1.0,6.0,95,0.00,,,0.70,7,weatherlink.com 1.10,2013-03-25 04:36:00,
2013-03-24 18:51:00,69.7,68.0,29.98,ESE,103,2.0,6.0,95,0.00,,,0.70,0,weatherlink.com 1.10,2013-03-25 04:51:00,
2013-03-24 19:07:00,69.8,68.0,29.98,SE,133,0.0,5.0,95,0.00,,,0.70,0,weatherlink.com 1.10,2013-03-25 05:07:00,
2013-03-24 19:23:00,69.7,68.0,29.98,SE,126,2.0,5.0,94,0.00,,,0.70,0,weatherlink.com 1.10,2013-03-25 05:23:00,
2013-03-24 19:37:00,69.7,68.0,29.99,ENE,76,0.0,5.0,94,0.00,,,0.70,0,weatherlink.com 1.10,2013-03-25 05:37:00,
2013-03-24 19:52:00,69.8,68.0,30.00,ENE,67,0.0,3.0,93,0.00,,,0.70,0,weatherlink.com 1.10,2013-03-25 05:52:00,
2013-03-24 20:07:00,69.9,68.0,30.00,North,10,0.0,4.0,92,0.00,,,0.70,0,weatherlink.com 1.10,2013-03-25 06:07:00,
2013-03-24 20:22:00,69.9,68.0,30.01,NW,319,0.0,4.0,92,0.00,,,0.70,0,weatherlink.com 1.10,2013-03-25 06:22:00,
2013-03-24 20:52:00,69.9,68.0,30.02,ESE,110,0.0,3.0,92,0.00,,,0.70,0,weatherlink.com 1.10,2013-03-25 06:52:00,
2013-03-24 21:07:00,69.8,67.0,30.03,ESE,109,1.0,3.0,92,0.00,,,0.70,0,weatherlink.com 1.10,2013-03-25 07:07:00,
2013-03-24 21:22:00,69.8,67.0,30.03,ENE,78,0.0,4.0,92,0.00,,,0.70,0,weatherlink.com 1.10,2013-03-25 07:22:00,
2013-03-24 21:37:00,69.9,68.0,30.03,North,358,0.0,3.0,93,0.00,,,0.70,0,weatherlink.com 1.10,2013-03-25 07:37:00,
2013-03-24 21:52:00,70.0,68.0,30.04,NNW,344,2.0,4.0,93,0.00,,,0.70,0,weatherlink.com 1.10,2013-03-25 07:52:00,
2013-03-24 22:07:00,70.2,68.0,30.03,ESE,115,0.0,3.0,93,0.00,,,0.70,0,weatherlink.com 1.10,2013-03-25 08:07:00,
2013-03-24 22:22:00,70.2,68.0,30.04,NNW,346,0.0,4.0,93,0.00,,,0.70,0,weatherlink.com 1.10,2013-03-25 08:22:00,
2013-03-24 22:37:00,70.3,68.0,30.03,NW,323,2.0,5.0,92,0.00,,,0.70,0,weatherlink.com 1.10,2013-03-25 08:37:00,
2013-03-24 22:52:00,70.3,68.0,30.03,NW,305,0.0,6.0,92,0.00,,,0.70,0,weatherlink.com 1.10,2013-03-25 08:52:00,
2013-03-24 23:08:00,70.4,68.0,30.03,NNW,329,2.0,4.0,92,0.00,,,0.70,0,weatherlink.com 1.10,2013-03-25 09:08:00,
2013-03-24 23:23:00,70.4,68.0,30.03,NNW,329,1.0,3.0,92,0.00,,,0.70,0,weatherlink.com 1.10,2013-03-25 09:23:00,
2013-03-24 23:38:00,70.4,68.0,30.02,NNW,328,1.0,4.0,92,0.00,,,0.70,0,weatherlink.com 1.10,2013-03-25 09:38:00,
2013-03-24 23:53:00,70.4,68.0,30.02,NW,325,2.0,5.0,92,0.00,,,0.70,0,weatherlink.com 1.10,2013-03-25 09:53:00,